User: anonymous   Login
Location: Lussas
(44.6119°N, 4.4726°E)
Time: 16:34:44
(UTC+00:00)
Language:

Meteor 2-17 Rocket - Orbit

View from above orbital plane
View from above orbital plane
View from above satellite
View from above satellite

Ground track
Ground track

The orbit data is extracted from the following two-line orbital elements,

1 18821U 88005B   21063.44662478  .00000012  00000-0 -25965-5 0  9990
2 18821  82.5401  62.5648 0015551 118.9265 241.3458 13.85122269673037
Epoch (UTC): 04 March 2021 10:43:08
Eccentricity: 0.0015551
inclination: 82.5401°
perigee height: 934 km
apogee height: 957 km
right ascension of ascending node: 62.5648°
argument of perigee: 118.9265°
revolutions per day: 13.85122269
mean anomaly at epoch: 241.3458°
orbit number at epoch: 67303

The dashed part of the orbit path shows where the satellite is in the earth's shadow,  

DLR